This demonstration page uses our WeatherBlox Daily Observations layout. Learn more.

Left ArrowRight Arrow

39.92423, -83.80882

Hourly Observations for May 6, 2020

Temp ( °F °C ) Dew Point ( °F °C ) Humidity (%) Winds ( mph kmh ) Pressure ( in mb ) Visibility ( mi km ) Precip ( " mm )
12:04 am 00:04 Cloudy with Rain 37 3 37 3 100 100 N 14 22 29.98 1015 9 14.48406 0 0
12:13 am 00:13 Cloudy with Light Rain 37 3 37 3 100 100 N 14 22 29.97 1015 10 16.0934 0 0
12:20 am 00:20 Cloudy with Light Rain 37 3 37 3 100 100 NNE 13 20 29.97 1015 10 16.0934 0 0
12:32 am 00:32 Cloudy with Light Rain 37 3 36 2 93 93 NNE 15 24 29.97 1015 10 16.0934 0 0
12:49 am 00:49 Cloudy with Light Rain 36 2 36 2 100 100 N 9 15 29.98 1015 10 16.0934 0 0
12:56 am 00:56 Cloudy with Light Rain 37 2.8 36 2.2 96 96 NNE 10 17 29.96 1014 10 16.0934 0 0
1:56 am 01:56 Cloudy 38 3.3 37 2.8 97 97 N 6 9 29.95 1014 10 16.0934 0.01 0.254
2:21 am 02:21 Cloudy with Light Rain 37 3 37 3 100 100 NNW 10 17 29.97 1015 10 16.0934 0.01 0.254
2:56 am 02:56 Cloudy with Light Rain 37 2.8 37 2.8 100 100 NNW 7 11 29.94 1014 10 16.0934 0.02 0.508
3:12 am 03:12 Cloudy with Light Rain 37 3 37 3 100 100 N 8 13 29.96 1015 10 16.0934 0.001 0.001
3:56 am 03:56 Cloudy with Light Rain 38 3.3 38 3.3 100 100 N 9 15 29.94 1014 10 16.0934 0.01 0.254
4:56 am 04:56 Cloudy 38 3.3 38 3.3 100 100 NW 5 7 29.95 1014 10 16.0934 0.01 0.254
5:10 am 05:10 Cloudy with Light Rain 37 3 37 3 100 100 NW 7 11 29.97 1015 10 16.0934 0.01 0.254
5:37 am 05:37 Cloudy with Light Rain 37 3 37 3 100 100 WNW 6 9 29.97 1015 10 16.0934 0.01 0.254
5:56 am 05:56 Cloudy with Light Rain 39 3.9 39 3.9 100 100 NW 7 11 29.96 1014 10 16.0934 0.01 0.254
6:19 am 06:19 Cloudy with Light Rain 37 3 37 3 100 100 NW 7 11 29.98 1015 10 16.0934 0.03 0.762
6:56 am 06:56 Cloudy 39 3.9 39 3.9 100 100 NW 7 11 29.96 1015 8 12.87472 0.03 0.762
7:56 am 07:56 Cloudy 39 3.9 39 3.9 100 100 NW 8 13 29.97 1015 10 16.0934 0.01 0.254
8:56 am 08:56 Cloudy 41 5 39 3.9 93 93 WNW 10 17 29.97 1015 10 16.0934 0.02 0.508
9:56 am 09:56 Cloudy 44 6.7 38 3.3 79 79 NNW 10 17 29.98 1015 10 16.0934 0.01 0.254
10:56 am 10:56 Mostly Cloudy 48 8.9 34 1.1 58 58 NW 16 26 29.99 1016 10 16.0934 0 0
11:56 am 11:56 Mostly Cloudy 51 10.6 34 1.1 52 52 NW 14 22 29.99 1016 10 16.0934 0 0
12:56 pm 12:56 Mostly Cloudy 53 11.7 30 -1.1 41 41 NW 14 22 30 1016 10 16.0934 0 0
1:56 pm 13:56 Sunny 55 12.8 27 -2.8 34 34 NW 17 28 30 1016 10 16.0934 0 0
2:56 pm 14:56 Sunny 56 13.3 27 -2.8 33 33 NNW 12 19 30 1016 10 16.0934 0 0
3:56 pm 15:56 Sunny 56 13.3 28 -2.2 34 34 NNW 12 19 30.01 1016 10 16.0934 0 0
4:56 pm 16:56 Sunny 57 13.9 28 -2.2 33 33 NW 15 24 29.99 1016 10 16.0934 0 0
5:56 pm 17:56 Sunny 57 13.9 25 -3.9 29 29 N 17 28 30 1016 10 16.0934 0 0
6:56 pm 18:56 Sunny 56 13.3 24 -4.4 29 29 N 13 20 30 1016 10 16.0934 0 0
7:56 pm 19:56 Sunny 54 12.2 23 -5 30 30 NW 10 17 30.01 1016 10 16.0934 0 0
8:56 pm 20:56 Clear 49 9.4 25 -3.9 39 39 NW 7 11 30.03 1017 10 16.0934 0 0
9:56 pm 21:56 Clear 46 7.8 32 0 58 58 W 6 9 30.04 1017 10 16.0934 0 0
10:56 pm 22:56 Clear 46 7.8 30 -1.1 54 54 W 7 11 30.04 1017 10 16.0934 0 0
11:56 pm 23:56 Clear 42 5.6 31 -0.6 65 65 WNW 8 13 30.04 1017 10 16.0934 0.02 0.508

Powered by AerisWeather